www.pogodaiklimat.ru

Погода и климат >> Архив погоды >> Норвегия >> Маяватн


ПОГОДА в Маяватн

  • Прогноз погоды в Маяватн
  • Монитор погоды в Маяватн

АРХИВ ПОГОДЫ в Маяватн

Время (UTC), дата Ветер
(напр.,м/с)
 
Видим.   Явления Облачность Т
(С)
Тd
(С)
f
(%)
Тe
(С)
Тes
(С)
Комфортность P
(гПа)
Po
(гПа)
Тmin
(С)
Tmax
(С)
R
(мм)
R24
(мм)
S
(см)
07 11.02 СВ 1
{4}
н/о н/о -3.5 -4.5 93 -6 -6 994.9 955.7 0.3
08 11.02 Ю 1
{3}
н/о н/о -3.2 -4.2 93 -6 -6 995.8 956.6
09 11.02 Ю 1
{3}
н/о н/о -1.9 -2.9 93 -4 -4 996.4 957.4 0.1
10 11.02 Ю 2
{3}
н/о н/о -1.3 -3.1 88 -5 -5 997.0 958.1 0.3
11 11.02 З 1
{3}
н/о н/о -0.8 -3.3 83 -3 -3 997.9 959.0
12 11.02 штиль 0
{4}
н/о н/о -1.3 -2.7 90 -3 -3 999.1 960.2 0.1
13 11.02 штиль 0
{2}
н/о н/о -1.4 -2.7 91 -3 -3 1000.4 961.4 0.8
14 11.02 З 1
{2}
н/о н/о -2.8 -4.2 90 -5 -5 1001.7 962.5
15 11.02 ЮЗ 1
{3}
н/о н/о -3.3 -4.5 91 -6 -6 1003.3 963.8 0.5
16 11.02 СЗ 1
{3}
н/о н/о -4.1 -5.7 89 -6 -6 1004.3 964.7
17 11.02 ЮЗ 1
{2}
н/о н/о -5.3 -7.0 88 -8 -8 1005.0 965.2
18 11.02 В 1
{3}
н/о н/о -8.8 -10.2 90 -11 -11 1006.0 965.6 0.0 2
19 11.02 СВ 1
{3}
н/о н/о -8.4 -9.3 93 -11 -11 1006.3 965.9
20 11.02 ЮЗ 1
{4}
н/о н/о -4.1 -4.6 96 -7 -7 1005.5 965.8 0.6
21 11.02 З 2
{6}
н/о н/о -3.3 -4.5 91 -7 -7 1005.4 965.9 0.9
22 11.02 З 1
{6}
н/о н/о -2.9 -4.8 87 -5 -5 1005.9 966.4 0.5
23 11.02 СЗ 1
{5}
н/о н/о -3.0 -4.2 91 -5 -5 1006.7 967.1 0.2
00 12.02 В 1
{6}
н/о н/о -3.3 -4.7 90 -6 -6 1006.8 967.2 0.2
01 12.02 С 2
{7}
н/о н/о -2.3 -3.0 95 -6 -6 1007.5 968.0 0.9
02 12.02 СЗ 2
{8}
н/о н/о -2.7 -6.4 76 -7 -7 1009.0 969.4 0.3
03 12.02 СЗ 3
{8}
н/о н/о -3.2 -6.7 77 -8 -8 1010.0 970.3 0.2
04 12.02 З 2
{7}
н/о н/о -4.2 -8.3 73 -8 -8 1010.8 970.9
05 12.02 СЗ 1
{5}
н/о н/о -4.1 -8.2 73 -6 -6 1011.2 971.3
06 12.02 штиль 0
{8}
н/о н/о -7.7 -9.7 86 -8 -8 1011.7 971.3 -10.5 -2.3 4 95
07 12.02 Ю 1
{2}
н/о н/о -8.2 -9.4 91 -11 -11 1012.0 971.5
08 12.02 З 1
{1}
н/о н/о -9.1 -10.5 90 -11 -11 1012.2 971.5
09 12.02 штиль 0
{2}
н/о н/о -8.0 -9.3 90 -9 -9 1012.0 971.5
10 12.02 Ю 1
{2}
н/о н/о -4.8 -6.7 87 -7 -7 1011.3 971.3
11 12.02 СЗ 1
{2}
н/о н/о -2.8 -5.0 85 -5 -5 1010.9 971.2
12 12.02 штиль 0
{3}
н/о н/о -1.6 -4.7 79 -3 -3 1010.5 971.1 0.2
13 12.02 СВ 1
{2}
н/о н/о -2.2 -4.7 83 -4 -4 1010.0 970.5
14 12.02 ЮЗ 1
{2}
н/о н/о -2.8 -5.4 82 -5 -5 1009.6 970.0
15 12.02 СВ 1
{2}
н/о н/о -3.3 -4.8 89 -6 -6 1008.8 969.1
16 12.02 Ю 2
{4}
н/о н/о -2.9 -4.1 91 -7 -7 1007.9 968.3 0.1
17 12.02 Ю 3
{5}
н/о н/о -2.6 -4.5 87 -8 -8 1006.9 967.4
18 12.02 Ю 4
{6}
н/о н/о -2.4 -4.5 85 -8 -8 1005.8 966.3 -9.3 -1.2 0.3
19 12.02 Ю 4
{8}
н/о н/о -2.3 -4.5 85 -8 -8 1004.5 965.0 0.2
20 12.02 Ю 4
{7}
н/о н/о -2.2 -4.5 84 -8 -8 1003.1 963.8 0.3
21 12.02 ЮВ 4
{8}
н/о н/о -2.0 -4.2 85 -8 -8 1001.7 962.5 0.3
22 12.02 ЮВ 4
{8}
н/о н/о -1.9 -3.4 89 -8 -8 1000.1 960.9 1
23 12.02 Ю 4
{8}
н/о н/о -1.8 -2.8 93 -8 -8 998.2 959.1 2
00 13.02 Ю 4
{8}
н/о н/о -1.7 -3.0 91 -8 -8 996.4 957.5 3
01 13.02 Ю 5
{9}
н/о н/о -1.0 -2.5 90 -7 -7 994.8 956.0 0.4
02 13.02 ЮЗ 3
{9}
н/о н/о +0.1 -0.9 93 -5 -5 994.5 955.8 1
03 13.02 Ю 4
{9}
н/о н/о +0.7 -0.3 93 -5 -5 994.7 956.1 2
04 13.02 ЮЗ 3
{8}
н/о н/о +3.0 +1.2 88 -1 -1 995.3 956.9 0.6
05 13.02 З 5
{12}
н/о н/о +3.0 +0.7 85 -2 -2 995.7 957.3 0.1
06 13.02 З 6
{13}
н/о н/о +3.2 -0.2 78 -2 -2 995.7 957.4 -2.5 +3.4 12 100
07 13.02 З 7
{15}
н/о н/о +3.2 -0.6 76 -3 -3 995.9 957.5
08 13.02 З 6
{22}
н/о н/о +2.8 +0.1 82 -3 -3 995.6 957.3 0.7
09 13.02 З 6
{17}
н/о н/о +2.4 +0.3 86 -4 -4 996.1 957.7 1
10 13.02 З 4
{13}
н/о н/о +2.1 +0.5 89 -3 -3 996.8 958.3 2
11 13.02 З 7
{15}
н/о н/о +2.3 +0.5 88 -4 -4 997.5 959.0 3
12 13.02 З 8
{22}
н/о н/о +2.6 +0.5 86 -4 -4 999.8 961.4 3
13 13.02 СЗ 3
{13}
н/о н/о +1.7 -0.7 84 -3 -3 1004.8 966.1 0.3
14 13.02 СЗ 2
{11}
н/о н/о +1.4 -0.7 86 -2 -2 1007.8 968.8
15 13.02 СЗ 2
{8}
н/о н/о +1.4 -0.4 88 -2 -2 1009.9 970.8 0.1
16 13.02 С 1
{5}
н/о н/о +1.1 -0.3 90 -1 -1 1010.8 971.7 0.1
17 13.02 СЗ 1
{2}
н/о н/о +0.9 -0.1 93 -1 -1 1011.7 972.5 0.2
18 13.02 В 1
{13}
н/о н/о +1.6 -0.0 89 -0 -0 1012.3 973.2 +0.8 +3.8 11
19 13.02 ЮВ 2
{5}
н/о н/о +2.5 -0.4 81 -1 -1 1012.2 973.3
20 13.02 В 1
{3}
н/о н/о +1.7 -0.1 88 -0 -0 1011.7 972.6
21 13.02 Ю 2
{5}
н/о н/о +2.0 +0.2 88 -1 -1 1011.3 972.3
22 13.02 В 1
{4}
н/о н/о +1.9 +0.1 88 0 0 1010.9 971.9 0.1
23 13.02 Ю 4
{8}
н/о н/о +1.4 +0.3 92 -4 -4 1010.8 971.7 1
00 14.02 Ю 3
{8}
н/о н/о +1.2 +0.2 93 -3 -3 1010.7 971.6 2
01 14.02 Ю 4
{9}
н/о н/о +1.7 +0.4 91 -3 -3 1009.6 970.6 2
02 14.02 Ю 3
{8}
н/о н/о +2.4 +0.9 90 -2 -2 1009.0 970.2 1
03 14.02 Ю 4
{10}
н/о н/о +2.8 +1.2 89 -2 -2 1008.1 969.2 0.7
04 14.02 Ю 5
{9}
н/о н/о +3.0 +1.7 91 -2 -2 1007.6 968.8 2
05 14.02 ЮЗ 4
{11}
н/о н/о +3.2 +2.0 92 -2 -2 1006.7 968.0 2
06 14.02 Ю 6
{11}
н/о н/о +3.5 +2.3 92 -2 -2 1005.4 966.7 +1.1 +3.6 13 83
07 14.02 Ю 5
{11}
н/о н/о +3.6 +2.6 93 -2 -2 1004.1 965.6 2
08 14.02 ЮЗ 4
{10}
н/о н/о +3.7 +2.7 93 -1 -1 1003.3 964.8 3
09 14.02 ЮЗ 5
{12}
н/о н/о +4.0 +2.7 91 -1 -1 1003.0 964.6 4
10 14.02 З 8
{17}
н/о н/о +4.6 +1.1 78 -1 -1 1002.8 964.4 1
11 14.02 ЮЗ 8
{18}
н/о н/о +4.9 +1.0 76 -1 -1 1001.6 963.4 0.7
12 14.02 З 6
{18}
н/о н/о +3.9 +1.5 84 -2 -2 1002.6 964.2 2
13 14.02 З 8
{17}
н/о н/о +3.9 +1.8 86 -2 -2 1002.5 964.2 1
14 14.02 З 6
{15}
н/о н/о +3.6 +1.2 84 -2 -2 1002.6 964.0 2
15 14.02 З 5
{16}
н/о н/о +3.1 +1.3 88 -2 -2 1003.4 964.8 1
16 14.02 З 8
{16}
н/о н/о +3.3 +0.7 83 -3 -3 1004.9 966.3 2
17 14.02 З 7
{17}
н/о н/о +3.2 +0.1 80 -3 -3 1006.2 967.5 2
18 14.02 З 7
{17}
н/о н/о +2.8 -0.1 81 -3 -3 1006.8 968.1 +2.5 +5.2 22
19 14.02 З 10
{17}
н/о н/о +3.2 -1.1 73 -4 -4 1007.4 968.8 0.3
20 14.02 З 10
{20}
н/о н/о +3.4 -1.0 73 -3 -3 1007.7 969.0
21 14.02 З 11
{18}
н/о н/о +4.0 -2.6 62 -3 -3 1007.6 969.0
22 14.02 З 10
{18}
н/о н/о +3.7 -1.8 67 -3 -3 1008.6 969.9 0.4
23 14.02 З 9
{17}
н/о н/о +3.4 -1.7 69 -3 -3 1009.3 970.5
00 15.02 З 9
{20}
н/о н/о +3.2 -1.5 71 -3 -3 1009.8 971.0
01 15.02 З 8
{17}
н/о н/о +2.9 -1.4 73 -3 -3 1010.3 971.4
02 15.02 З 7
{14}
н/о н/о +2.9 -1.3 74 -3 -3 1010.7 971.8
03 15.02 З 7
{15}
н/о н/о +2.8 -1.5 73 -3 -3 1010.6 971.7
04 15.02 З 4
{12}
н/о н/о +2.8 -1.2 75 -2 -2 1011.1 972.2
05 15.02 З 4
{10}
н/о н/о +2.5 -0.8 79 -2 -2 1011.2 972.2
06 15.02 ЮЗ 2
{17}
н/о н/о +1.1 -0.5 89 -2 -2 1012.0 972.9 +1.1 +4.0 1 72
07 15.02 ЮЗ 1
{4}
н/о н/о +0.6 -0.2 94 -1 -1 1012.0 972.7 0.7
08 15.02 Ю 2
{4}
н/о н/о +0.5 -0.3 94 -3 -3 1012.1 972.8 1
09 15.02
{10}
н/о н/о +0.6 -0.2 94 1012.2 972.9 0.8
10 15.02 Ю 3
{6}
н/о н/о +0.5 -0.3 94 -4 -4 1011.9 972.6 1
11 15.02 З 1
{5}
н/о н/о +0.6 -0.2 94 -1 -1 1011.5 972.3 1
12 15.02 СВ 1
{10}
н/о н/о +1.1 +0.3 94 -1 -1 1011.0 971.8 0.5
13 15.02 ЮЗ 3
{6}
н/о н/о +3.6 +2.9 95 -0 -0 1010.3 971.5
14 15.02 Ю 3
{10}
н/о н/о +3.8 +2.5 91 -0 -0 1010.1 971.4 0.1
15 15.02 ЮВ 3
{8}
н/о н/о +4.0 +2.8 92 0 0 1009.7 971.0
16 15.02 ЮВ 5
{9}
н/о н/о +3.9 +2.6 91 -1 -1 1009.0 970.4
17 15.02 Ю 5
{8}
н/о н/о +4.4 +2.4 87 -1 -1 1008.4 969.8
18 15.02 Ю 4
{10}
н/о н/о +4.5 +1.5 81 0 0 1007.6 969.0 +0.4 +4.5 6
19 15.02 ЮВ 3
{6}
н/о н/о +4.0 +1.2 82 0 0 1006.6 968.0
20 15.02 Ю 2
{6}
н/о н/о +4.0 +0.5 78 +1 +1 1004.9 966.4
21 15.02 С 1
{2}
н/о н/о +0.6 -0.2 94 -1 -1 1004.8 965.8
22 15.02 ЮВ 1
{3}
н/о н/о +1.4 +0.8 96 -1 -1 1003.2 964.4
23 15.02 СВ 1
{4}
н/о н/о +1.4 +0.5 94 -1 -1 1002.2 963.3
00 16.02 СЗ 1
{6}
н/о н/о +2.4 +0.5 87 +1 +1 1001.0 962.3
01 16.02 СВ 1
{3}
н/о н/о +2.3 +0.4 87 +1 +1 999.9 961.3
02 16.02 ЮЗ 7
{14}
н/о н/о +6.1 -0.6 62 +1 +1 998.9 960.9
03 16.02 ЮЗ 5
{14}
н/о н/о +3.6 +1.5 86 -2 -2 999.1 960.8 2
04 16.02 ЮЗ 7
{15}
н/о н/о +3.8 -0.6 73 -2 -2 999.7 961.4 0.7
05 16.02 ЮЗ 6
{13}
н/о н/о +2.8 -0.5 79 -3 -3 999.9 961.4
06 16.02 З 6
{15}
н/о н/о +2.6 -2.5 69 -3 -3 999.9 961.4 +0.6 +6.2 2 71
07 16.02 З 6
{13}
н/о н/о +2.3 -2.4 71 -3 -3 999.8 961.3
08 16.02 З 7
{13}
н/о н/о +2.2 -3.1 68 -4 -4 1000.1 961.4
09 16.02 З 6
{14}
н/о н/о +2.1 -3.8 65 -4 -4 1000.5 961.9 0.5
10 16.02 З 7
{13}
н/о н/о +1.5 -4.1 66 -5 -5 1001.1 962.5 0.6
11 16.02 З 7
{14}
н/о н/о +1.6 -3.4 69 -5 -5 1001.1 962.5
12 16.02 З 6
{16}
н/о н/о +1.5 -4.3 65 -4 -4 1001.9 963.2 0.1
13 16.02 З 8
{15}
н/о н/о +1.4 -5.9 58 -5 -5 1002.2 963.4 0.2
14 16.02 З 6
{15}
н/о н/о +1.0 -5.9 60 -5 -5 1003.2 964.3
15 16.02 З 5
{15}
н/о н/о +0.3 -3.8 74 -5 -5 1004.6 965.6 0.3
16 16.02 З 5
{11}
н/о н/о -0.1 -3.1 80 -6 -6 1005.0 966.0 1
17 16.02 З 7
{14}
н/о н/о -0.1 -4.2 74 -7 -7 1005.3 966.2 0.2
18 16.02 З 7
{15}
н/о н/о -0.2 -3.0 81 -7 -7 1005.5 966.5 -0.9 +2.6 3
19 16.02 З 7
{15}
н/о н/о -0.2 -2.9 82 -7 -7 1006.4 967.2 0.2
20 16.02 З 4
{11}
н/о н/о -0.4 -1.7 91 -6 -6 1007.7 968.5 0.5
21 16.02 З 2
{8}
н/о н/о -0.5 -1.4 94 -4 -4 1008.9 969.6 2
22 16.02 СЗ 2
{6}
н/о н/о -0.4 -1.1 95 -4 -4 1009.8 970.5 2
23 16.02 С 1
{6}
н/о н/о -0.7 -1.6 94 -3 -3 1010.8 971.4 1
00 17.02 СЗ 2
{15}
н/о н/о -0.4 -1.0 96 -4 -4 1011.2 971.8 2
01 17.02 Ю 1
{5}
н/о н/о -1.5 -2.4 94 -4 -4 1012.1 972.5 0.2
02 17.02 Ю 1
{6}
н/о н/о -1.4 -2.4 93 -4 -4 1012.9 973.3
03 17.02 В 1
{6}
н/о н/о -0.9 -2.3 90 -3 -3 1013.7 974.2
04 17.02 СВ 1
{2}
н/о н/о -1.7 -2.6 94 -4 -4 1014.0 974.3
05 17.02 штиль 0
{2}
н/о н/о -1.7 -2.4 95 -3 -3 1014.5 974.9 0.3
06 17.02 СВ 1
{6}
н/о н/о -2.0 -2.7 95 -4 -4 1014.9 975.2 -2.0 0.0 8 81
07 17.02 СЗ 1
{1}
н/о н/о -1.7 -2.3 96 -4 -4 1015.8 976.1 0.6
08 17.02 штиль 0
{2}
н/о н/о -1.9 -2.6 95 -3 -3 1016.6 976.8 0.2
09 17.02 Ю 1
{2}
н/о н/о -1.1 -2.0 94 -3 -3 1017.2 977.5
10 17.02 Ю 2
{5}
н/о н/о -0.2 -2.6 84 -4 -4 1017.4 977.8
11 17.02 СЗ 1
{5}
н/о н/о -0.2 -2.6 84 -2 -2 1017.3 977.7
12 17.02 штиль 0
{5}
н/о н/о +0.1 -2.9 80 -1 -1 1016.2 976.8
13 17.02 штиль 0
{2}
н/о н/о -1.0 -3.1 86 -2 -2 1016.2 976.5
14 17.02 Ю 1
{4}
н/о н/о -0.9 -3.4 83 -3 -3 1015.8 976.2
15 17.02 Ю 3
{5}
н/о н/о -1.6 -4.5 81 -6 -6 1015.4 975.7
16 17.02 Ю 2
{6}
н/о н/о -1.7 -4.3 82 -6 -6 1014.6 974.9
17 17.02 ЮВ 4
{8}
н/о н/о -0.2 -4.5 73 -5 -5 1013.3 973.9
18 17.02 ЮВ 4
{9}
н/о н/о -0.2 -4.6 72 -5 -5 1013.0 973.6 -2.1 +0.6 0.8
19 17.02 ЮВ 3
{9}
н/о н/о -0.7 -4.0 78 -5 -5 1012.6 973.1
20 17.02 ЮВ 2
{6}
н/о н/о -0.9 -4.3 78 -5 -5 1011.6 972.0 0.2
21 17.02 ЮЗ 3
{8}
н/о н/о -1.3 -3.7 84 -6 -6 1010.8 971.3 0.1
22 17.02 ЮВ 4
{9}
н/о н/о -1.0 -3.8 81 -7 -7 1009.6 970.3 0.1
23 17.02 ЮВ 6
{10}
н/о н/о -1.2 -3.6 84 -8 -8 1009.1 969.6 0.2
00 18.02 ЮВ 4
{10}
н/о н/о -1.5 -2.9 90 -7 -7 1008.4 969.0 1
01 18.02 Ю 4
{8}
н/о н/о -0.9 -3.1 85 -7 -7 1007.5 968.2 0.9
02 18.02 Ю 4
{8}
н/о н/о -0.2 -3.3 80 -6 -6 1006.4 967.1
03 18.02 Ю 4
{9}
н/о н/о -0.2 -3.2 80 -6 -6 1005.6 966.5
04 18.02 Ю 4 н/о н/о -0.2 -3.2 80 -6 -6 1004.8 965.7
05 18.02 Ю 4
{8}
н/о н/о 0.0 -3.1 80 -5 -5 1003.9 964.9
06 18.02 Ю 3
{9}
н/о н/о -0.4 -2.8 84 -5 -5 1003.7 964.7 -1.6 +0.2 2 84
07 18.02 Ю 2
{5}
н/о н/о +0.4 -3.0 78 -3 -3 1002.8 964.0 0.1

 

Местоположение метеостанции Маяватн (Норвегия): широта 65.17 долгота 13.37 высота над уровнем моря 319 м.

В архиве по умолчанию представлена погода в Маяватн за последнюю неделю. Архивные данные за месяц целиком и за предыдущие месяцы, начиная с января 2011 года, Вы можете получить, выбрав интересующий диапазон дат из раскрывающегося списка и нажав кнопку "Ввод!".


*Определитесь, кто Вы:
робот инопланетянин человек

Внимание! Время в таблицах - всемирное. Для получения местного времени необходимо прибавить поправку, которая равна 1 ч.

Смотрите также архив погоды в соседних городах и на ближайших метеорологических станциях:

Погода на Далатанги 2 (Исландия) (15 км)
Погода в Лаксфорсе (Норвегия) (50 км)
Погода в Намсскугане (Норвегия) (54 км)
Погода в Стекенйокке (Швеция) (54 км)
Погода в Брённёйсунн аэропорту (Норвегия) (62 км)
Погода на Сомна-Квалёйа (Норвегия) (65 км)
Погода в Мосьен аэропорту (Норвегия) (68 км)
Погода в Гиеласе (Швеция) (81 км)
Погода в Аддеде (Швеция) (85 км)
Погода в Гартлэнде (Норвегия) (85 км)

Пояснения к столбцам:

Ветер - указаны скорость ветра в м/с - средняя за 10 мин, порывы в срок и между сроками (в фигурных скобках) и направление, откуда дует ветер: С - северный, СВ - северо-восточный, В - восточный, ЮВ - юго-восточный, Ю - южный, ЮЗ - юго-западный, З - западный, СЗ - северо-западный.
Видимость - горизонтальная дальность видимости в метрах или километрах. При видимости от 1 до 10 км при отсутствии осадков обычно наблюдается дымка, при ухудшении видимости до 1 км и менее - туман. В сухую погоду видимость может ухудшаться дымом, пылью или мглою.
Явления - указаны атмосферные явления, наблюдавшиеся в срок или в последний час перед сроком; фигурными скобками обозначены явления, наблюдавшиеся между сроками (за 1-3 часа до срока); квадратными скобками обозначены град или гололедные отложения с указанием их диаметра в мм.
Облачность - указаны через наклонную черту общая и нижняя облачность в баллах и высота нижней границы облаков в метрах; квадратными скобками обозначены формы облаков: Ci - перистые, Cs - перисто-слоистые, Cc - перисто-кучевые, Ac - высококучевые, As - высокослоистые, Sc - слоисто-кучевые, Ns - слоисто-дождевые, Cu - кучевые, Cb - кучево-дождевые. Подробнее классификацию облаков см. в Атласе облаков (PDF).
T - Температура воздуха - температура, измеренная на высоте 2 м над землей.
Td - Температура точки росы - температура, при понижении до которой содержащийся в воздухе водяной пар достигнет насыщения.
f - Относительная влажность воздуха - влажноcть воздуха, измеренная на высоте 2 м над землей.
Te - Эффективная температура - температура, которую ощущает одетый по сезону человек в тени. Характеристика душности погоды. При расчете учитывается влияние влажности воздуха и скорости ветра на теплоощущения человека.
Tes - Эффективная температура на солнце - температура, которую ощущает человек, с поправкой на солнечный нагрев. Характеристика знойности погоды. Зависит от высоты солнца над горизонтом, облачности и скорости ветра. Ночью, в пасмурную погоду, а также при ветре 12 м/с и более поправка равна нулю.
P - Атмосферное давление - приведенное к уровню моря атмосферное давление.
Po - Атмосферное давление - измеренное на уровне метеостанции атмосферное давление.
Tmin - Минимальная температура - минимум температуры воздуха на высоте 2 м над землей.
Tmax - Максимальная температура - максимум температуры воздуха на высоте 2 м над землей.
R - Количество осадков - Количество выпавших осадков за период времени, мм. При наведении курсора мыши на число - период времени, за который выпало указанное количество осадков.
R24 - Количество осадков - Количество выпавших осадков за 24 часа, мм.
S - Снежный покров - Высота снежного покрова, см. При наведении курсора мыши на число - состояние снежного покрова и степень покрытия местности в баллах.